CAPE
96 213 705 625 879 906 1320 1277 977 756 1066 1187 1261 1217 1122 1210 1415 1196 1159 1277 1207 1247 1249 1104 951 860 997 1197 1253 1137 1104 948 919 753 1074 829 884 1173 544 557 724 962 1403
87 239 686 906 732 898 1446 1177 1172 1239 1214 1229 1170 1184 1009 819 859 1171 882 1359 1363 1222 1205 1199 1398 1464 1346 1455 1275 1019 1105 1000 1144 1006 903 925 523 860 270 2 1053 1136 1574
81 207 362 1164 911 1049 1175 983 1056 1148 1333 1356 1206 1211 1229 1368 1267 1124 1272 1327 1398 1206 915 957 1133 951 1085 1272 1223 840 523 625 1060 1228 742 243 618 902 1039 1013 1135 1354 1144
85 133 130 756 1090 1383 862 1001 1017 1224 1205 1330 1352 1264 1151 978 1009 482 451 688 718 655 773 700 928 1252 1392 1423 1273 807 592 580 657 928 685 534 458 775 622 737 619 1116 679
75 213 301 733 913 786 1301 1087 1325 1267 1394 1345 1394 1077 481 1498 729 813 1358 1301 1103 1100 1257 1127 1079 1039 935 861 779 603 658 827 1067 1285 621 678 484 767 561 586 695 1001 983
84 362 424 836 1463 1581 1018 1246 1305 1441 453 367 354 777 1255 912 954 1448 1294 1219 1189 1146 1009 872 839 914 910 794 593 486 798 1376 1613 1180 1 360 221 553 948 674 95 116 903
196 585 900 1158 1358 1333 1256 1336 1337 1241 521 1450 1223 1251 1080 1402 1151 1076 1205 1202 1111 973 923 811 753 632 520 505 380 293 426 877 1311 799 151 0 0 471 801 603 416 51 19
78 486 697 848 1352 1378 1430 1372 1287 607 496 1530 1447 911 1116 1200 1079 1078 999 927 909 886 817 663 572 446 336 246 239 211 306 612 289 921 229 17 0 399 845 813 923 410 253
375 532 672 826 1157 1428 1429 1475 1115 828 538 769 860 617 1055 1107 1072 1051 970 1000 940 748 583 420 409 409 227 153 133 136 219 685 667 964 549 297 62 88 975 1406 1242 526 433
313 316 355 434 722 832 1051 1103 1504 1461 1361 1114 401 539 866 438 424 639 511 463 375 350 264 447 411 266 180 157 174 245 366 718 859 823 38 515 172 102 200 1234 1436 925 704
125 289 362 438 758 671 504 548 434 623 664 247 483 712 866 714 448 754 597 0 8 91 164 225 282 273 349 325 350 630 1124 1010 1303 1449 636 761 453 395 299 335 1156 1011 920
1 87 310 620 674 510 136 559 674 954 883 366 742 548 883 876 517 625 419 289 772 977 854 620 525 650 646 666 816 997 1249 1145 741 1211 1138 454 672 632 612 512 442 794 911
0 26 30 432 730 458 938 1122 819 738 1322 1019 1102 1066 1254 1127 860 1317 514 1169 1354 1658 1329 1438 6 0 580 1196 893 976 700 305 467 838 603 633 526 599 807 771 639 598 681
0 0 0 159 429 256 830 392 255 755 186 431 1133 1222 1501 1510 1326 1440 1036 1253 1499 991 1292 976 225 218 1260 1221 335 932 763 551 168 459 483 383 454 480 615 794 905 983 1045
0 0 0 458 346 357 406 9 44 439 978 1247 1568 1794 2043 1397 590 1116 1117 1250 1315 801 1058 793 793 1338 854 1052 863 390 161 293 416 714 799 604 740 820 760 811 938 1101 1242
6 1 15 584 176 144 549 714 717 560 624 1072 1727 1671 1708 1842 1879 1780 1339 1530 1397 692 877 800 946 847 1269 828 334 567 385 519 561 297 853 1039 1139 1067 760 846 995 1173 1325
0 12 45 308 21 143 546 579 338 469 369 534 712 1196 1385 1483 1685 1189 1550 1605 1648 1657 1624 1750 1509 1237 1052 913 371 24 65 444 400 255 268 1009 1565 1317 976 955 367 250 189
62 82 240 27 1 196 374 276 723 545 405 443 326 267 547 897 1571 1495 1723 322 1378 1523 832 930 962 814 714 372 280 97 0 0 7 198 439 9 82 932 1135 780 130 12 0
58 35 213 4 43 189 124 599 572 409 319 307 157 68 576 848 1693 1490 1437 1634 1453 1294 1286 1154 1394 1094 565 538 82 0 0 99 18 205 34 106 314 54 822 738 281 99 87
22 175 63 61 14 95 70 163 317 296 205 157 110 128 235 919 1559 1930 1300 1724 1469 985 734 767 1297 1044 718 382 197 18 140 27 148 214 102 267 364 164 197 260 406 102 177
94 108 177 166 125 277 108 239 316 164 94 31 89 103 183 699 1800 2009 2094 1639 1491 1115 1205 1324 1774 1310 1167 835 63 124 72 111 18 60 62 45 8 256 388 293 245 183 171
238 290 214 362 575 440 518 769 451 405 284 861 498 538 637 983 1784 2119 1759 2057 1811 1705 1267 782 939 1283 1164 779 307 550 519 534 301 170 223 146 212 159 210 203 414 450 317
453 451 229 370 633 740 674 697 889 415 353 350 238 239 352 797 1856 1943 2131 2285 2187 2320 1512 1277 1284 1178 914 1049 1400 1091 655 424 625 741 730 597 775 826 735 715 595 537 926
661 787 560 435 393 834 752 536 767 554 621 517 691 552 887 1632 1756 2095 2391 2404 2668 2364 2365 1787 1880 1645 1645 1584 1731 1621 1594 1388 171 139 665 701 614 630 914 706 441 667 763
587 850 1087 1500 1363 1192 1191 963 636 1237 710 665 374 219 662 1456 1822 1811 1686 2507 2706 2692 2637 2344 2174 2246 1866 1608 1598 1356 1280 791 687 807 626 531 586 807 1132 927 754 957 1231
455 573 1047 1551 1678 1824 1977 1795 1355 1408 1146 679 624 987 910 1599 2028 1841 1346 468 1477 2653 2743 2563 2259 2235 2177 1927 1472 1282 761 952 662 813 551 480 462 578 664 645 677 898 1012
CIN
-10 -3 -1 -1 0 0 0 0 0 0 -1 0 0 0 0 -1 0 -1 0 0 -1 0 -2 0 0 -4 -5 -9 -13 -22 -21 -24 -35 -58 -23 -45 -47 -19 -75 -60 -33 -2 -3
-30 -5 -1 0 -3 0 0 0 0 -1 0 0 -1 0 -1 -1 -1 -1 -6 0 0 0 0 0 0 0 0 0 -3 -21 -21 -23 -16 -25 -36 -51 -72 -59 -116 -44 -18 -12 0
-49 -11 -6 0 0 0 -2 0 -1 -1 0 0 0 0 -1 0 0 0 0 0 0 0 0 0 0 0 0 0 -5 -25 -47 -45 -21 -8 -19 -52 -59 -48 -40 -39 -12 -4 -3
-21 -13 -13 -5 -1 0 -4 -1 0 0 -1 0 0 0 0 -1 0 -11 -14 -5 -3 -6 -1 -2 0 0 0 0 -11 -34 -44 -58 -54 -43 -11 -14 -38 -49 -46 -40 -42 -9 -34
-23 -4 -10 -3 -2 -3 0 -1 0 0 0 0 0 0 -11 0 -10 0 0 0 0 0 0 0 0 -4 -9 -20 -44 -48 -48 -42 -39 -27 -22 -11 -50 -56 -53 -46 -36 -13 -7
-29 0 -5 -1 0 0 -1 0 0 0 -13 -12 -13 -2 0 -3 -2 0 0 0 0 0 -2 -9 -10 -11 -21 -26 -42 -54 -46 -39 -33 -16 -1 -42 -85 -70 -39 -37 -92 -99 -8
-15 -1 0 0 0 0 0 -1 -1 0 -7 0 0 0 -1 0 0 0 0 -1 -1 -8 -13 -20 -23 -36 -51 -60 -72 -85 -64 -38 -15 -8 -16 0 -3 -94 -56 -62 -78 -161 -124
-13 -5 -1 -2 -1 -1 0 0 0 -8 -12 0 0 -8 -1 0 0 -1 -9 -18 -18 -21 -30 -44 -43 -59 -78 -91 -87 -90 -78 -45 -82 -32 -47 -13 0 -111 -81 -71 -47 -90 -118
-8 -5 -1 0 0 0 0 0 -1 -5 -16 -9 -6 -26 -10 -10 -12 -15 -21 -23 -29 -47 -64 -77 -72 -78 -96 -100 -92 -89 -82 -47 -71 -27 -55 -96 -165 -160 -72 -43 -39 -98 -100
-1 -12 -8 -8 -6 -10 -3 -6 0 0 0 -7 -49 -44 -34 -57 -59 -51 -61 -59 -74 -82 -92 -77 -86 -104 -119 -114 -113 -88 -70 -68 -73 -78 -102 -103 -117 -152 -128 -62 -43 -62 -78
-22 -11 -12 -20 -10 -6 -25 -26 -38 -31 -32 -50 -49 -45 -48 -30 -51 -40 -63 -69 -57 -113 -99 -90 -85 -95 -91 -86 -81 -77 -73 -70 -30 -35 -94 -105 -114 -95 -107 -111 -52 -63 -59
-14 -35 -11 -6 -16 -21 -35 -33 -29 -23 -27 -48 -6 -15 -28 -20 -21 -5 -27 -58 -55 -46 -48 -52 -48 -45 -69 -53 -36 -46 -61 -33 -21 -25 -62 -107 -113 -87 -83 -87 -89 -53 -45
0 -71 -57 -29 -5 -10 -10 -9 -14 -17 -5 -13 -7 -6 -7 -17 -15 -13 -32 -38 -31 -35 -31 -15 -22 -6 -97 -4 -4 -8 -8 -11 -73 -37 -83 -116 -94 -88 -76 -75 -73 -72 -59
0 0 0 -52 -11 -51 -4 -38 -85 -26 -101 -72 -21 -20 -16 -17 -21 -10 -58 -25 -10 -10 -14 -50 -95 -119 -30 -3 -76 -32 -7 -6 -190 -90 -84 -96 -84 -85 -82 -72 -57 -51 -41
0 0 0 -8 -14 -17 -24 -123 -119 -72 -15 -8 -8 -6 -2 -18 -62 -34 -34 -18 -9 -20 -12 -8 -5 -6 -18 -14 -27 -14 -29 -41 -24 -14 -55 -55 -52 -68 -67 -76 -68 -57 -45
-2 -1 -27 -16 -73 -57 -29 -20 -20 -7 -8 -4 -5 -12 0 -3 -7 -18 -22 -11 -13 -24 -16 -14 -14 -19 -11 -10 -12 -3 -9 -13 -7 -42 -35 -53 -67 -40 -55 -72 -77 -72 -69
0 -4 -80 -34 -71 -52 -13 -21 -25 -6 -2 -3 -2 -9 -11 -6 -1 -21 -3 -6 -5 -1 -14 -17 -12 -7 -10 -5 -7 -18 -36 -9 -26 -43 -35 -19 -36 -40 -51 -73 -108 -126 -164
-115 -77 -16 -91 -12 -51 -52 -58 -26 -16 -32 -12 -11 -20 -21 -15 0 -11 -3 -65 -16 -17 -35 -17 -6 -2 -6 -21 -25 -20 0 0 -66 -52 -32 -32 -34 -15 -43 -62 -133 -93 0
-136 -101 -31 -67 -111 -41 -82 -25 -28 -36 -43 -30 -18 -36 -10 -17 -2 -15 -14 -10 -10 -14 -12 -11 -2 -4 -14 -19 -40 0 0 -32 -12 -23 -34 -51 -26 -71 -32 -49 -115 -147 -139
-234 -114 -98 -74 -58 -59 -73 -72 -63 -49 -44 -44 -39 -31 -44 -19 -6 -1 -13 -6 -8 -11 -17 -35 -9 -15 -31 -36 -33 -44 -21 -12 -24 -29 -13 -40 -31 -15 -20 -60 -72 -96 -119
-141 -112 -65 -72 -92 -45 -89 -75 -61 -75 -73 -55 -41 -49 -57 -33 0 0 -3 -10 -2 -6 -9 -11 -13 -24 -19 -13 -27 -38 -53 -55 -23 -96 -94 -154 -103 -11 -8 -20 -40 -67 -113
-123 -95 -104 -67 -40 -70 -61 -40 -49 -38 -42 -17 -43 -37 -30 -25 -5 -1 -9 -7 -9 -11 -13 -43 -48 -43 -36 -12 -21 -14 -19 -25 -60 -57 -67 -70 -84 -36 -9 -19 -13 -9 -37
-122 -124 -178 -156 -98 -82 -78 -53 -29 -77 -86 -79 -85 -74 -71 -43 -10 -3 -3 -3 -6 -7 -18 -32 -36 -39 -40 -33 -11 -4 -10 -11 -6 -17 -25 -38 -29 -14 -10 -13 -17 -22 -13
-125 -133 -175 -192 -190 -122 -122 -135 -79 -101 -80 -75 -42 -39 -8 -4 -5 -7 -4 -3 -4 -11 -10 -8 -3 -11 -11 -22 -12 -13 -10 -8 -72 -20 -11 -23 -40 -27 -14 -17 -19 -16 -20
-173 -156 -150 -106 -123 -131 -124 -140 -155 -56 -96 -83 -91 -84 -32 -8 -15 -15 -22 -4 -5 -15 -6 -14 -16 -17 -23 -15 -7 -16 -26 -33 -12 -3 -4 -28 -22 -8 -6 -19 -17 -11 -8
-188 -193 -180 -147 -135 -109 -73 -97 -136 -97 -89 -113 -94 -47 -34 -5 -7 -20 -33 -104 -6 -4 -7 -7 -11 -11 -9 -9 -14 -24 -31 -7 -20 -4 -4 -21 -11 -49 -58 -50 -41 -27 -12
Wind_Speed
13 14 11 11 12 11 7 5 5 8 3 3 2 5 5 10 19 25 27 29 29 29 29 30 30 29 28 28 27 26 24 23 25 27 26 27 26 24 22 18 13 12 10
16 18 17 15 15 14 8 6 7 6 2 1 6 7 6 8 15 17 19 24 26 27 27 28 29 29 29 28 27 26 24 23 24 25 25 26 26 23 21 19 14 12 11
16 18 23 14 12 16 7 8 7 3 2 5 9 11 11 17 18 18 21 23 24 26 26 27 28 28 28 27 26 24 23 23 21 22 24 24 24 23 22 21 18 13 10
20 20 23 14 15 11 9 12 7 3 5 6 10 13 15 18 20 20 21 22 23 24 25 26 26 26 26 26 24 22 19 19 19 18 19 17 24 24 23 21 20 19 12
25 27 24 17 12 13 12 7 5 4 6 8 9 12 17 18 19 20 21 23 23 24 24 24 24 24 24 23 22 19 18 16 15 15 24 23 24 22 23 22 22 21 21
31 30 25 12 6 6 7 5 4 5 7 8 12 11 15 18 19 18 19 21 22 22 22 22 22 22 22 21 20 18 17 15 13 17 24 24 23 22 22 22 21 21 21
27 19 25 5 3 3 4 4 5 6 6 7 13 10 15 16 16 18 19 19 19 20 20 20 20 20 20 19 18 15 14 9 10 11 20 23 22 22 21 20 21 21 20
20 23 21 2 4 3 4 6 7 7 7 7 12 11 13 15 17 18 18 18 19 19 18 18 18 18 18 17 15 14 13 20 19 13 19 20 20 20 20 19 19 19 19
14 14 21 17 6 4 7 6 7 7 8 7 7 11 13 15 18 18 17 17 17 17 16 15 15 15 15 15 13 12 13 18 17 15 20 17 17 18 18 17 17 17 17
12 12 20 21 26 23 20 14 10 7 7 7 10 16 16 19 18 17 16 16 16 15 15 16 13 13 13 12 12 12 12 12 15 17 18 15 17 16 15 15 15 15 15
9 5 10 24 26 21 21 23 23 23 17 9 14 9 18 18 17 16 16 15 15 15 15 14 12 13 9 8 11 10 8 8 7 9 12 14 15 15 13 13 12 12 12
9 4 22 23 25 22 22 24 22 22 20 18 12 14 19 15 14 12 16 15 15 16 15 13 15 23 17 7 8 6 7 5 7 8 11 13 13 12 11 10 10 10 10
17 18 23 23 24 16 10 22 21 13 10 13 12 16 14 13 17 17 22 13 10 14 12 10 19 24 22 12 21 11 14 17 26 13 11 12 13 14 11 9 8 8 7
23 23 27 24 20 11 10 12 15 17 16 18 11 14 17 17 19 20 14 11 10 16 14 14 18 11 11 20 21 15 22 22 22 13 11 10 13 14 12 10 9 8 7
26 25 27 24 14 10 9 12 21 19 19 20 19 18 18 18 16 19 13 12 12 13 8 12 11 8 8 7 10 7 15 18 16 18 15 15 10 15 13 11 10 9 9
26 27 27 22 22 22 22 21 20 18 20 16 18 19 13 10 11 7 9 8 13 13 19 12 9 9 6 6 5 9 7 8 8 18 14 13 10 15 13 12 11 9 8
30 30 28 23 25 24 22 22 19 20 16 16 15 15 14 10 7 6 14 13 13 16 19 10 7 6 7 5 23 18 11 9 12 16 9 9 10 10 11 11 11 12 12
31 31 29 26 26 25 24 22 19 16 16 15 13 12 14 13 6 12 20 24 7 6 18 7 17 8 11 22 11 10 15 13 15 11 10 16 15 11 9 9 11 15 18
30 30 28 26 25 25 23 21 19 18 16 13 12 11 18 16 17 3 8 15 12 12 15 8 10 13 21 15 9 8 16 13 12 8 12 11 10 11 10 8 11 17 24
29 29 27 25 24 22 20 19 19 17 14 12 10 9 19 21 19 11 16 10 24 21 14 8 16 18 16 12 18 19 12 11 17 9 9 23 24 10 16 16 17 26 23
29 28 27 26 24 22 20 21 19 16 14 10 9 7 10 11 12 21 10 26 21 20 19 15 14 10 10 13 19 24 29 17 10 11 13 14 14 17 12 17 23 20 24
29 28 27 26 24 23 23 21 20 16 13 10 9 9 7 7 8 7 19 18 24 22 16 16 14 13 15 10 11 14 22 17 17 8 14 12 8 15 17 22 22 26 28
28 28 28 26 24 23 22 20 18 16 13 10 7 6 6 8 10 10 7 8 16 14 10 11 12 11 13 15 12 14 22 26 23 23 18 19 22 24 22 23 26 28 27
28 27 26 24 23 21 21 19 16 14 11 10 8 7 9 12 10 10 8 7 11 12 9 10 10 12 12 11 16 18 18 30 34 27 20 33 35 31 25 25 31 31 32
28 26 25 22 21 21 19 18 16 13 11 10 8 6 6 6 6 5 7 14 9 10 9 11 12 14 14 16 19 25 29 34 31 25 30 31 24 24 33 32 33 33 28
26 25 23 21 20 19 18 17 16 14 11 9 7 5 5 5 7 6 5 27 4 7 10 11 15 17 19 19 22 27 29 31 34 38 41 41 37 37 36 38 32 32 29
Wind_Direction
193 186 186 183 179 178 175 171 172 179 180 178 35 23 20 26 44 59 67 77 79 83 80 83 87 90 94 91 90 100 114 115 101 91 101 89 75 70 66 64 32 9 6
191 184 180 183 182 182 185 185 185 192 220 244 14 15 7 17 34 38 42 58 69 73 72 77 82 84 90 93 93 99 110 119 113 102 106 93 82 73 67 58 13 13 7
192 187 172 185 186 182 196 195 199 225 304 354 17 22 21 39 40 40 51 55 60 69 71 76 77 78 81 92 96 105 112 112 121 117 118 88 87 78 83 77 41 26 346
184 181 177 191 186 194 198 194 213 257 351 350 18 28 32 44 48 48 54 60 62 64 71 78 81 81 80 88 98 111 128 122 122 128 125 132 86 81 91 101 87 73 8
167 154 173 189 198 196 200 216 236 343 357 4 10 21 41 45 45 55 56 63 65 71 73 74 82 88 88 90 101 116 131 137 135 139 101 114 91 94 97 107 107 115 140
142 140 170 201 222 227 225 243 290 342 348 360 28 17 35 47 50 45 49 58 65 70 71 73 81 87 87 94 99 117 133 141 145 129 89 91 86 96 100 103 106 112 116
121 84 100 227 268 309 284 300 316 329 334 335 32 12 33 36 37 48 53 53 54 64 67 67 74 84 89 92 103 125 144 186 254 173 85 77 88 95 100 104 106 112 116
88 97 90 350 4 323 301 336 348 347 343 334 30 20 30 37 41 50 53 58 62 73 72 70 79 86 91 95 109 121 129 21 359 182 68 62 92 93 102 107 107 110 117
68 71 92 78 25 355 9 285 337 350 358 335 354 35 36 46 56 59 51 57 62 70 95 69 87 99 100 99 109 116 129 68 97 117 70 82 99 81 99 104 112 110 112
61 58 87 92 120 108 85 57 25 280 333 339 45 77 74 81 75 67 63 59 59 41 24 353 227 161 149 125 131 128 115 104 86 64 357 71 83 80 97 98 105 108 108
46 19 58 114 135 89 93 117 121 135 74 259 154 358 97 92 80 77 64 58 66 58 32 46 86 163 104 132 177 149 120 92 99 105 57 85 72 70 85 88 98 96 100
72 268 113 135 127 110 107 138 138 133 165 202 316 281 198 124 35 11 23 56 67 44 29 32 0 287 223 136 170 134 54 114 60 94 69 71 68 63 67 70 81 83 87
105 107 129 133 165 201 50 162 159 222 39 269 293 340 3 327 357 8 348 200 85 34 46 27 329 283 245 309 316 24 8 348 327 333 71 79 55 44 46 49 64 71 74
139 131 153 160 146 258 303 282 242 213 26 180 244 311 353 336 323 356 59 93 100 39 63 42 45 131 176 359 295 239 281 328 36 192 73 52 43 38 33 30 32 32 34
149 143 160 134 148 46 318 32 179 171 90 118 117 63 354 348 287 290 234 209 223 68 111 82 76 116 198 94 119 143 253 265 259 332 22 0 92 39 37 32 28 26 18
154 148 149 130 140 140 158 140 156 169 150 164 101 50 132 129 103 178 194 170 72 74 28 85 155 132 149 119 145 97 125 151 167 319 21 30 101 46 65 67 63 48 35
156 152 151 141 156 158 165 167 169 156 180 167 140 121 119 132 139 142 259 241 53 45 28 98 153 153 104 130 6 40 98 107 62 22 81 64 67 65 67 67 52 37 21
157 162 157 151 150 158 162 171 175 185 193 190 171 147 77 64 167 243 307 9 186 118 28 170 352 85 78 6 87 94 54 73 36 78 66 16 15 42 47 43 31 14 1
162 162 164 155 147 150 158 163 168 176 157 161 141 113 34 35 27 110 67 49 61 55 49 114 70 23 340 40 71 83 38 45 45 81 31 28 27 17 28 22 17 4 349
161 163 154 152 160 145 139 141 171 167 151 150 134 87 19 2 5 36 266 316 14 33 50 64 28 17 24 49 21 7 18 20 354 4 11 334 312 359 349 345 348 339 342
165 154 154 159 157 154 150 164 161 158 153 142 125 121 72 60 38 344 11 341 18 24 25 35 35 58 57 29 4 350 333 351 348 349 349 338 252 334 343 338 332 340 334
160 155 155 159 160 160 166 170 178 172 162 141 117 105 106 121 137 129 19 19 359 7 24 32 33 24 13 16 10 358 344 348 345 352 346 339 311 332 326 322 327 325 322
153 153 158 158 158 163 164 166 172 173 178 170 157 149 142 120 107 90 102 84 36 39 54 41 32 20 6 358 357 346 339 331 327 320 330 335 333 333 329 325 322 324 329
156 152 156 157 161 160 162 167 160 157 150 148 141 142 101 89 72 68 78 76 48 39 37 32 23 8 359 345 344 341 335 334 333 332 335 329 319 327 327 327 322 319 321
156 154 153 149 153 157 155 162 165 162 158 166 161 161 121 102 91 108 90 39 33 27 27 13 6 358 350 341 339 337 333 331 334 328 329 337 327 331 327 327 325 319 319
149 149 143 144 149 151 155 154 164 160 152 153 150 111 111 77 51 348 89 2 270 20 11 3 357 354 350 344 340 336 335 335 334 330 327 328 328 324 322 320 316 318 319